Location: Little Suamico
(44.7175°N, 88.0093°W)
Time: 07:48:27
(UTC+00:00)

X-37B - Pass Details

Date: 21 April 2021
Orbit: 386 x 389 km, 45.0° (Epoch: 08 May)

Event Time Altitude Azimuth Distance (km) Brightness Sun altitude
Exits shadow 09:42:27 20° 271° (W) 955 2.1 -12.9°
Maximum altitude 09:44:29 83° 357° (N) 395 0.6 -12.6°
Drops below altitude 10° 09:47:41 10° 87° (E) 1,413 4.5 -12.1°
Sets 09:49:45 0° 88° (E) 2,267 5.7 -11.8°
